Location: Days
(41.3591°N, 106.7339°W)
Time: 07:18:46
(UTC+00:00)

AIST 2D - Pass Details

Date: 06 July 2022
Orbit: 433 x 443 km, 97.0° (Epoch: 14 August)

Event Time Altitude Azimuth Distance (km) Brightness Sun altitude
Rises 05:03:26 0° 4° (N) 2,427 ? -19.4°
Reaches altitude 10° 05:05:31 10° 357° (N) 1,555 ? -19.6°
Maximum altitude 05:08:40 42° 286° (WNW) 642 ? -19.9°
Enters shadow 05:09:57 28° 235° (SW) 857 ? -20.0°
